User: anonymous   Login
Location: Champaign/Urbana Astronomical Society Observatory
(40.0333°N, 88.2833°W)
Time: 14:47:23
(UTC-06:00)
Language:

FO-29 - Orbit

View from above orbital plane
View from above orbital plane
View from above satellite
View from above satellite

Ground track
Ground track

The orbit data is extracted from the following two-line orbital elements,

1 24278U 96046B   19316.84632767 -.00000030  00000-0  69059-5 0  9999
2 24278  98.5602  90.4525 0349805 218.4186 139.1571 13.53094802147700
Epoch (UTC): 12 November 2019 20:18:42
Eccentricity: 0.0349805
inclination: 98.5602°
perigee height: 800 km
apogee height: 1321 km
right ascension of ascending node: 90.4525°
argument of perigee: 218.4186°
revolutions per day: 13.53094802
mean anomaly at epoch: 139.1571°
orbit number at epoch: 14770

The dashed part of the orbit path shows where the satellite is in the earth's shadow,  

DLR